Flag for Central African Republic Weather past 2 weeks in Bimbo, Central African Republic

Now
73 °F

Clear.


Feels Like: 70 °F
Forecast: 74 / 99 °F
Wind: No wind

Location: Bangui Airport

Current Time: Mar 1, 2015 at 6:11:52 AM

Latest Report: Mar 1, 2015 at 5:00 AM


Visibility: 10 mi

Pressure: 29.83 "Hg

Humidity: 94%

Dew point: 72 °F

Location of BimboLocation

Historic Weather in Bimbo — Graph

°F

Bimbo temperature yesterday

Maximum temperature yesterday: 93 °F (at 3:00 PM)
Minimum temperature yesterday: 75 °F (at 5:00 AM)
Average temperature yesterday: 83 °F

Past Weeks' High & Low Weather Summary

 TemperatureHumidityPressure
High100 °F (Feb 17, 2:00 PM)100% (Feb 18, 11:00 PM)30.01 "Hg (Feb 18, 11:00 PM)
Low66 °F (Feb 19, 6:00 AM)32% (Feb 26, 4:00 PM)29.68 "Hg (Feb 17, 3:00 PM)
Average83 °F72%29.82 "Hg
* Reported Feb 14 4:00 AM — Mar 1 4:00 AM, Bimbo, Weather by CustomWeather, © 2015

Note: Actual official high and low records may vary slightly from our data, if they occured in-between our weather recording intervals... More about our weather records

Advertising

Bimbo weather history for previous 24 hours

 ConditionsComfort  
Time TempWeatherWind HumidityBarometerVisibility
4:00 AM
Sun, Mar 1
73 °FClear.No wind94%29.83 "Hg10 mi
3:00 AM73 °FClear.No wind94%29.83 "Hg10 mi
2:00 AM73 °FClear.2 mph94%29.83 "Hg10 mi
1:00 AM75 °FClear.2 mph89%29.86 "Hg10 mi
12:00 AM77 °FClear.2 mph83%29.86 "Hg10 mi
10:00 PM
Sat, Feb 28
79 °FClear.5 mph79%29.89 "Hg4 mi
9:00 PM81 °FClear.3 mph70%29.89 "Hg4 mi
8:00 PM81 °FClear.7 mph66%29.83 "Hg4 mi
6:00 PM86 °FClear.1 mph59%29.80 "Hg10 mi
5:00 PM91 °FSunny.2 mph38%29.77 "Hg10 mi
3:00 PM93 °FPassing clouds.6 mph34%29.77 "HgN/A
2:00 PM91 °FPassing clouds.6 mph38%29.80 "HgN/A
1:00 PM91 °FPassing clouds.7 mph38%29.83 "HgN/A
12:00 PM90 °FPassing clouds.8 mph43%29.86 "HgN/A
11:00 AM88 °FPartly sunny.7 mph55%29.92 "HgN/A
10:00 AM84 °FPartly sunny.8 mph62%29.92 "HgN/A
9:00 AM82 °FPartly sunny.3 mph70%29.95 "HgN/A
8:00 AM77 °FPassing clouds.6 mph79%29.92 "HgN/A
7:00 AM75 °FPartly sunny.No wind89%29.89 "HgN/A
Weather by CustomWeather, © 2015

See weather overviewHow to use our weather pages